Skip Page Navigation
NASA JPL Caltech
NASA Logo - Jet Propulsion Laboratory + View the NASA Portal
+ Center for Near-Earth Object Studies
JPL Home Earth Solar System Stars & Galaxies Technology
JPL Solar System Dynamics
BODIES ORBITS EPHEMERIDES TOOLS PHYSICAL DATA DISCOVERY FAQ SITE MAP
JPL Small-Body Database Browser
Search: [ help ]  
190401 (1999 TL145)
Classification: Main-belt Asteroid          SPK-ID: 2190401
Ephemeris | Orbit Diagram | Orbital Elements | Mission Design | Physical Parameters | Discovery Circumstances | Close-Approach Data ]

[ show orbit diagram ]
Orbital Elements at Epoch 2459396.5 (2021-Jul-01.0) TDB
Reference: JPL 20 (heliocentric ecliptic J2000)
 Element Value Uncertainty (1-sigma)   Units 
e .09689396906038829 4.7803e-08  
a 2.741991700825004 1.8264e-08 au
q 2.476309241801425 1.3479e-07 au
i 3.680173718960765 5.557e-06 deg
node 15.36949162221851 6.0596e-05 deg
peri 23.6476886943964 6.5552e-05 deg
M 259.5961539610004 2.6589e-05 deg
tp 2459859.035934869324
(2022-Oct-06.53593487)
0.00012466 TDB
period 1658.431854176966
4.54
1.6569e-05
4.536e-08
d
yr
n .2170725309534398 2.1688e-09 deg/d
Q 3.007674159848584 2.0033e-08 au
  Orbit Determination Parameters
   # obs. used (total)      473  
   data-arc span      10362 days (28.37 yr)  
   first obs. used      1992-02-09  
   last obs. used      2020-06-23  
   planetary ephem.      DE441  
   SB-pert. ephem.      SB441-N16  
   condition code      0  
   norm. resid. RMS      .58703  
   source      ORB  
   producer      Otto Matic  
   solution date      2021-Apr-13 22:07:29  

Additional Information
 Earth MOID = 1.48362 au 
 Jupiter MOID = 2.3662 au 
 T_jup = 3.340 
[ hide covariance matrix ]
Orbital Elements at Epoch 2457558.5 (2016-Jun-19.0) TDB
Reference: JPL 20 (heliocentric ecliptic J2000)
 Element Value Uncertainty (1-sigma)   Units 
e .09702798801560333 4.7341e-08  
q 2.474722094739699 1.3295e-07 au
tp 2458205.637636471908
(2018-Mar-28.13763647)
0.00011852 TDB
node 15.40170163311909 6.0598e-05 deg
peri 24.5873646110167 6.5638e-05 deg
i 3.680623704784024 5.5571e-06 deg
  Orbit Determination Parameters
   # obs. used (total)      473  
   data-arc span      10362 days (28.37 yr)  
   first obs. used      1992-02-09  
   last obs. used      2020-06-23  
   planetary ephem.      DE441  
   SB-pert. ephem.      SB441-N16  
   condition code      0  
   norm. resid. RMS      .58703  
   source      ORB  
   producer      Otto Matic  
   solution date      2021-Apr-13 22:07:29  

Additional Information
 Jupiter MOID = 2.3662 au 
 T_jup = 3.340 
Orbit Covariance (6×6)
  e q tp node peri i
e 2.241211491447937E-15 -6.245592220364084E-15 -2.146099233333715E-12 -5.500674149978158E-15 -5.116840568612363E-13 7.523948369140059E-17
q -6.245592220364084E-15 1.767521224493657E-14 6.556059974834733E-12 1.616439975858612E-14 1.524058733090926E-12 -7.505887061182501E-17
tp -2.146099233333715E-12 6.556059974834733E-12 1.404797128840028E-8 1.812502580445205E-11 2.994773281475665E-9 -4.313570854331078E-12
node -5.500674149978158E-15 1.616439975858612E-14 1.812502580445205E-11 3.672158256314219E-9 -3.660225619324711E-9 -6.286251293249716E-11
peri -5.116840568612363E-13 1.524058733090926E-12 2.994773281475665E-9 -3.660225619324711E-9 4.308322641147591E-9 6.182205741539889E-11
i 7.523948369140059E-17 -7.505887061182501E-17 -4.313570854331078E-12 -6.286251293249716E-11 6.182205741539889E-11 3.088181324130093E-11

Ephemeris | Orbit Diagram | Orbital Elements | Mission Design | Physical Parameters | Discovery Circumstances | Close-Approach Data ]

Physical Parameter Table
Parameter Symbol Value Units Sigma Reference Notes
absolute magnitude H 15.88   n/a E2021B55  

190401 (1999 TL145)          Discovered 1999-Oct-07 by LINEAR at Socorro
Reference: 20080917/Numbers.arcLast Updated: 2008-09-19

[ show close-approach data ]
Alternate Designations
 1999 TL145 = 2006 DU113 
Ephemeris | Orbit Diagram | Orbital Elements | Mission Design | Physical Parameters | Discovery Circumstances | Close-Approach Data ]
ABOUT SSD CREDITS/AWARDS PRIVACY/COPYRIGHT GLOSSARY LINKS
FirstGov 2021-Jul-25 07:28 UT
(server date/time)  
NASA Home Page
Site Manager:   Ryan S. Park
Webmaster  Alan B. Chamberlin